Gladstone Observation History
Time Wind Speed Temp Pressure Rel. Hum Rain
14/10:30am SSW 7-12 kts 21.8°c 1015.4 hPa 36% 0.0mm
14/10:00am SSE 7-13 kts 21.4°c 1015.7 hPa 39% 0.0mm
14/09:30am SSE 8-15 kts 20.3°c 1015.9 hPa 41% 0.0mm
14/09:00am SSW 5-9 kts 19.9°c 1015.8 hPa 44% 0.0mm
14/08:30am SSW 5-9 kts 19.2°c 1015.6 hPa 44% 0.0mm
14/08:00am SSW 7-12 kts 18.5°c 1015.4 hPa 46% 0.0mm
14/07:30am SSW 9-16 kts 17.7°c 1014.9 hPa 48% 0.0mm
14/07:00am S 9-15 kts 17.5°c 1014.4 hPa 48% 0.0mm
14/06:30am SSW 10-16 kts 17.5°c 1014.2 hPa 47% 0.0mm
14/06:00am SSW 11-19 kts 17.8°c 1013.8 hPa 46% 0.0mm
14/05:30am SSW 12-19 kts 17.8°c 1013.4 hPa 46% 0.0mm
14/05:00am SSW 10-17 kts 17.9°c 1013.1 hPa 47% 0.0mm
14/04:30am SSW 9-15 kts 18.4°c 1012.9 hPa 45% 0.0mm
14/04:00am SSW 8-13 kts 18.4°c 1012.8 hPa 45% 0.0mm
14/03:30am SSW 9-15 kts 18.4°c 1012.5 hPa 45% 0.0mm
14/03:00am SSW 9-14 kts 18.6°c 1012.5 hPa 46% 0.0mm
14/02:30am S 9-14 kts 19.0°c 1012.4 hPa 46% 0.0mm
14/02:00am SSW 10-16 kts 19.5°c 1012.5 hPa 45% 0.0mm
14/01:30am S 7-9 kts 19.7°c 1012.7 hPa 46% 0.0mm
14/01:00am S 7-11 kts 20.0°c 1012.9 hPa 47% 0.0mm
14/12:30am S 9-14 kts 21.0°c 1012.9 hPa 46% 0.0mm
14/12:00am S 7-10 kts 20.8°c 1013.2 hPa 51% 0.0mm
Time Wind Speed Temp Pressure Rel. Hum Rain
13/11:30pm SSW 9-15 kts 21.0°c 1013.3 hPa 56% 0.0mm
13/11:00pm SSW 8-12 kts 21.1°c 1013.4 hPa 70% 0.0mm
13/10:30pm SSW 7-9 kts 20.9°c 1013.3 hPa 90% 0.0mm
13/10:00pm S 7-8 kts 21.2°c 1013.2 hPa 94% 0.0mm
13/09:30pm S 5-7 kts 21.3°c 1013.2 hPa 95% 0.0mm
13/09:00pm SSE 5-8 kts 21.4°c 1013.1 hPa 96% 0.0mm
13/08:30pm CALM 0 kts 21.7°c 1012.8 hPa 95% 0.0mm
13/08:00pm CALM 0 kts 21.9°c 1012.7 hPa 94% 0.0mm
13/07:30pm NE 1-3 kts 22.1°c 1012.6 hPa 94% 0.0mm
13/07:00pm NE 4-5 kts 22.3°c 1012.2 hPa 92% 0.0mm
13/06:30pm NE 4-6 kts 22.3°c 1011.9 hPa 90% 0.0mm
13/06:00pm NE 4-6 kts 22.3°c 1011.5 hPa 88% 0.0mm
13/05:30pm NE 5-6 kts 22.8°c 1011.2 hPa 85% 0.0mm
13/05:00pm NE 5-7 kts 23.3°c 1011.0 hPa 82% 0.0mm
13/04:30pm NNE 6-10 kts 24.0°c 1010.6 hPa 77% 0.0mm
13/04:00pm NE 5-10 kts 25.3°c 1010.4 hPa 73% 0.0mm
13/03:30pm NNE 6-11 kts 25.8°c 1010.4 hPa 71% 0.0mm
13/03:00pm NE 7-12 kts 26.5°c 1010.4 hPa 67% 0.0mm
13/02:30pm NE 7-12 kts 27.1°c 1010.6 hPa 66% 0.0mm
13/02:00pm NE 7-10 kts 27.7°c 1010.9 hPa 64% 0.0mm
13/01:30pm NE 7-11 kts 27.8°c 1011.2 hPa 61% 0.0mm
13/01:00pm NE 5-8 kts 29.7°c 1011.7 hPa 57% 0.0mm
13/12:30pm NNE 5-8 kts 28.9°c 1012.2 hPa 58% 0.0mm
13/12:00pm NE 6-9 kts 28.8°c 1012.8 hPa 61% 0.0mm
13/11:30am ENE 7-9 kts 27.5°c 1013.2 hPa 63% 0.0mm
13/11:00am NE 5-8 kts 26.8°c 1013.6 hPa 70% 0.0mm
13/10:30am E 5-9 kts 26.1°c 1014.0 hPa 72% 0.0mm
13/10:00am E 5-9 kts 25.3°c 1014.2 hPa 71% 0.0mm
13/09:30am SE 3-6 kts 23.6°c 1014.2 hPa 79% 0.0mm
13/09:00am SE 5-8 kts 23.4°c 1014.3 hPa 83% 0.2mm
13/08:30am SE 5-8 kts 22.6°c 1014.3 hPa 86% 0.2mm
13/08:00am SE 6-8 kts 21.9°c 1014.1 hPa 95% 0.2mm
13/07:30am ESE 8-12 kts 20.8°c 1013.7 hPa 99% 0.2mm
13/07:00am SE 6-8 kts 20.4°c 1013.7 hPa 99% 0.2mm
13/06:30am SSE 5-8 kts 20.3°c 1013.4 hPa 99% 0.2mm
13/06:00am SSE 4-6 kts 20.6°c 1012.9 hPa 98% 0.2mm
13/05:30am SSE 4-6 kts 21.0°c 1012.8 hPa 97% 0.2mm
13/05:00am SSE 6-9 kts 21.3°c 1012.6 hPa 97% 0.2mm
13/04:30am SSE 5-6 kts 20.9°c 1012.6 hPa 98% 0.2mm
13/04:00am SSE 2-5 kts 21.0°c 1012.4 hPa 96% 0.2mm
13/03:30am S 6-8 kts 21.6°c 1012.3 hPa 97% 0.2mm
13/03:00am S 5-7 kts 21.5°c 1012.3 hPa 95% 0.2mm
13/02:30am SSW 6-8 kts 21.6°c 1012.5 hPa 96% 0.2mm
13/02:00am SW 6-8 kts 21.7°c 1012.8 hPa 98% 0.2mm
13/01:30am SSW 6-7 kts 21.7°c 1013.2 hPa 99% 0.2mm
13/01:00am SSW 6-9 kts 21.8°c 1013.6 hPa 99% 0.0mm
13/12:30am SSW 6-8 kts 21.8°c 1013.7 hPa 100% 0.0mm
13/12:00am S 5-7 kts 21.9°c 1013.8 hPa 100% 0.0mm
Time Wind Speed Temp Pressure Rel. Hum Rain
12/11:30pm S 5-7 kts 22.2°c 1013.9 hPa 100% 0.0mm
12/11:00pm SE 5-6 kts 22.3°c 1014.0 hPa 100% 0.0mm
12/10:30pm E 1-5 kts 22.4°c 1013.9 hPa 99% 0.0mm
12/10:00pm CALM 0 kts 22.6°c 1013.8 hPa 99% 0.0mm
12/09:30pm CALM 0-3 kts 22.6°c 1014.1 hPa 99% 0.0mm
12/09:00pm E 5-7 kts 22.8°c 1014.0 hPa 100% 0.0mm
12/08:30pm ESE 5-6 kts 22.8°c 1014.0 hPa 99% 0.0mm
12/08:00pm ESE 5-7 kts 22.9°c 1014.0 hPa 99% 0.0mm
12/07:30pm E 6-8 kts 22.9°c 1013.8 hPa 98% 0.0mm
12/07:00pm E 8-11 kts 23.0°c 1013.8 hPa 98% 0.0mm
12/06:30pm ENE 7-11 kts 23.1°c 1013.6 hPa 95% 0.0mm
12/06:00pm ENE 6-8 kts 23.4°c 1013.4 hPa 91% 0.0mm
12/05:30pm ENE 6-8 kts 23.7°c 1013.4 hPa 87% 0.0mm
12/05:00pm ENE 7-10 kts 24.5°c 1013.2 hPa 81% 0.0mm
12/04:30pm ENE 8-11 kts 25.4°c 1012.8 hPa 77% 0.0mm
12/04:00pm ENE 8-12 kts 26.2°c 1013.0 hPa 74% 0.0mm
12/03:30pm ENE 9-11 kts 27.0°c 1012.9 hPa 69% 0.0mm
12/03:00pm ENE 9-11 kts 27.6°c 1012.9 hPa 66% 0.0mm
12/02:30pm ENE 7-11 kts 28.5°c 1013.1 hPa 60% 0.0mm
12/02:00pm ENE 9-12 kts 28.5°c 1013.3 hPa 60% 0.0mm
12/01:30pm ENE 8-11 kts 28.8°c 1013.6 hPa 60% 0.0mm
12/01:00pm ENE 9-12 kts 28.8°c 1013.9 hPa 59% 0.0mm
12/12:30pm ENE 7-11 kts 29.3°c 1014.4 hPa 57% 0.0mm
12/12:00pm E 7-11 kts 28.3°c 1015.0 hPa 61% 0.0mm
12/11:30am ENE 9-13 kts 28.4°c 1015.7 hPa 63% 0.0mm
12/11:00am E 10-13 kts 27.8°c 1016.1 hPa 63% 0.0mm
12/10:30am E 10-15 kts 27.9°c 1016.3 hPa 64% 0.0mm
12/10:00am E 10-13 kts 27.3°c 1016.5 hPa 66% 0.0mm
12/09:30am SE 7-11 kts 26.1°c 1016.5 hPa 74% 0.0mm
12/09:00am SE 8-11 kts 25.0°c 1016.6 hPa 79% 0.0mm
12/08:30am SE 7-10 kts 24.4°c 1016.5 hPa 84% 0.0mm
12/08:00am SE 8-12 kts 23.2°c 1016.2 hPa 88% 0.0mm
12/07:30am SE 7-11 kts 22.5°c 1016.1 hPa 93% 0.0mm
12/07:00am SSE 7-11 kts 21.8°c 1015.8 hPa 97% 0.0mm
12/06:30am SE 7-10 kts 21.5°c 1015.8 hPa 97% 0.0mm
12/06:00am SSE 8-11 kts 21.3°c 1015.4 hPa 98% 0.0mm
12/05:30am SE 7-9 kts 21.3°c 1015.0 hPa 98% 0.0mm
12/05:00am SSE 6-8 kts 21.5°c 1014.7 hPa 98% 0.0mm
12/04:30am SE 6-9 kts 21.5°c 1014.6 hPa 97% 0.0mm
12/04:00am SE 6-9 kts 21.7°c 1014.6 hPa 98% 0.0mm
12/03:30am S 6-8 kts 21.4°c 1014.6 hPa 99% 0.0mm
12/03:00am S 5-7 kts 21.5°c 1014.6 hPa 99% 0.0mm
12/02:30am S 5-7 kts 21.3°c 1014.8 hPa 99% 0.0mm
12/02:00am SE 4-6 kts 21.5°c 1014.8 hPa 98% 0.0mm
12/01:30am SE 4-5 kts 21.9°c 1014.9 hPa 98% 0.0mm
12/01:00am SE 4-6 kts 22.0°c 1015.4 hPa 98% 0.0mm
12/12:30am SE 5-7 kts 21.9°c 1015.5 hPa 98% 0.0mm
12/12:00am ESE 7-8 kts 21.9°c 1015.8 hPa 97% 0.0mm